Flag for U.S.A. Weather past 2 weeks in Rockford, Illinois, U.S.A.

Now
68 °F

Clear.


Feels Like: 68 °F
Forecast: 63 / 85 °F
Wind: No wind

Location: Greater Rockford Airport

Current Time: Aug 20, 2014 at 2:16:39 AM

Latest Report: Aug 20, 2014 at 12:54 AM


Visibility: 10 mi

Pressure: 29.81 "Hg

Humidity: 82%

Dew point: 62 °F

Location of RockfordLocation

Historic Weather in Rockford — Graph

°F

Rockford temperature yesterday

Maximum temperature yesterday: 85 °F (at 3:54 PM)
Minimum temperature yesterday: 67 °F (at 10:54 PM)
Average temperature yesterday: 75 °F

Past Weeks' High & Low Weather Summary

 TemperatureHumidityPressure
High85 °F (Aug 19, 3:54 PM)96% (Aug 18, 6:54 AM)30.15 "Hg (Aug 18, 6:54 AM)
Low51 °F (Aug 15, 5:54 AM)40% (Aug 14, 2:54 PM)29.70 "Hg (Aug 19, 3:54 PM)
Average70 °F70%29.99 "Hg
* Reported Aug 5 1:01 AM — Aug 20 12:54 AM, Rockford, Weather by CustomWeather, © 2014

Note: Actual official high and low records may vary slightly from our data, if they occured in-between our weather recording intervals... More about our weather records

Advertising

Rockford weather history for previous 24 hours

 ConditionsComfort  
Time TempWeatherWind HumidityBarometerVisibility
12:54 AM
Aug 20
68 °FClear.No wind82%29.81 "Hg10 mi
11:54 PM
Aug 19
67 °FPassing clouds.No wind85%29.80 "Hg10 mi
10:54 PM67 °FClear.3 mph85%29.79 "Hg10 mi
9:54 PM70 °FClear.3 mph76%29.78 "Hg10 mi
8:54 PM73 °FPassing clouds.3 mph69%29.76 "Hg10 mi
7:54 PM76 °FPassing clouds.6 mph62%29.74 "Hg10 mi
6:54 PM81 °FPassing clouds.12 mph53%29.73 "Hg10 mi
5:54 PM84 °FScattered clouds.14 mph51%29.72 "Hg10 mi
4:54 PM85 °FScattered clouds.14 mph51%29.70 "Hg10 mi
3:54 PM85 °FPartly sunny.13 mph48%29.70 "Hg10 mi
2:54 PM84 °FScattered clouds.16 mph55%29.70 "Hg10 mi
1:54 PM81 °FPartly sunny.13 mph60%29.71 "Hg10 mi
12:54 PM81 °FBroken clouds.17 mph60%29.72 "Hg10 mi
11:54 AM82 °FBroken clouds.10 mph60%29.73 "Hg10 mi
10:54 AM80 °FPartly sunny.10 mph69%29.73 "Hg9 mi
9:54 AM74 °FMostly cloudy.8 mph85%29.73 "Hg8 mi
8:54 AM73 °FOvercast.7 mph88%29.73 "Hg7 mi
7:54 AM72 °FFog.8 mph87%29.72 "Hg6 mi
6:54 AM71 °FFog.8 mph90%29.71 "Hg6 mi
5:54 AM71 °FFog.8 mph90%29.72 "Hg6 mi
4:54 AM72 °FMostly cloudy.5 mph87%29.72 "Hg8 mi
3:54 AM71 °FThunderstorms. Mostly cloudy.10 mph90%29.71 "Hg8 mi
2:54 AM70 °FPartly cloudy.10 mph90%29.72 "Hg7 mi
Weather by CustomWeather, © 2014

See weather overviewHow to use our weather pages